Location: Lomond
(50.3500°N, 112.6333°W)
Time: 08:02:52
(UTC+00:00)

XW-2D - Visible Passes

Search period start: 06 December 2023 00:00
Search period end: 16 December 2023 00:00
Orbit: 454 x 464 km, 97.5° (Epoch: 06 December)

Date Brightness Start Highest point End Pass type
(mag) Time Alt. Az. Time Alt. Az. Time Alt. Az.
06 Dec ? 00:28:45 10° SE 00:31:47 29° ENE 00:34:52 10° N visible
06 Dec ? 02:01:55 10° SSW 02:04:45 23° W 02:07:35 10° NW visible
06 Dec ? 13:20:23 10° NE 13:22:43 17° E 13:25:02 10° SE visible
07 Dec ? 01:29:02 10° S 01:32:25 53° W 01:35:52 10° NNW visible
07 Dec ? 14:20:13 10° NNE 14:23:43 83° ESE 14:27:10 10° SSW visible
08 Dec ? 00:56:48 10° SSE 01:00:13 61° ENE 01:03:41 10° N visible
08 Dec ? 02:32:16 10° WSW 02:33:32 12° W 02:34:48 10° WNW visible
08 Dec ? 13:48:12 10° NNE 13:51:24 33° E 13:54:35 10° SSE visible
09 Dec ? 00:25:10 10° SE 00:28:07 26° ENE 00:31:05 10° N visible
09 Dec ? 01:58:05 10° SSW 02:01:01 25° W 02:03:58 10° NW visible
09 Dec ? 13:16:49 10° NE 13:18:55 15° E 13:21:00 10° SE visible
10 Dec ? 01:25:10 10° S 01:28:36 60° W 01:32:04 10° NNW visible
10 Dec ? 14:16:20 10° NNE 14:19:49 73° ESE 14:23:16 10° S visible
11 Dec ? 00:52:54 10° SSE 00:56:17 54° ENE 00:59:43 10° N visible
11 Dec ? 02:27:52 10° WSW 02:29:32 13° W 02:31:12 10° WNW visible
11 Dec ? 13:44:17 10° NNE 13:47:23 29° E 13:50:27 10° SSE visible
12 Dec ? 00:21:16 10° ESE 00:24:06 24° ENE 00:26:57 10° N visible
12 Dec ? 01:53:53 10° SSW 01:56:55 28° W 01:59:59 10° NW visible
12 Dec ? 13:12:57 10° ENE 13:14:45 13° E 13:16:33 10° ESE visible
13 Dec ? 01:20:57 10° S 01:24:24 69° WSW 01:27:54 10° NNW visible
13 Dec ? 14:12:07 10° NNE 14:15:35 64° ESE 14:18:59 10° S visible
14 Dec ? 00:48:40 10° SE 00:52:01 47° ENE 00:55:22 10° N visible
14 Dec ? 02:23:13 10° SW 02:25:11 14° W 02:27:11 10° NW visible
14 Dec ? 13:40:01 10° NE 13:42:59 26° E 13:45:57 10° SSE visible
15 Dec ? 00:17:01 10° ESE 00:19:43 21° ENE 00:22:26 10° NNE visible
15 Dec ? 01:49:21 10° SSW 01:52:29 32° W 01:55:38 10° NNW visible
15 Dec ? 13:08:50 10° ENE 13:10:13 12° E 13:11:36 10° ESE visible
15 Dec ? 14:40:04 10° N 14:43:30 58° WNW 14:46:53 10° SSW visible
